Home   Weather   Neu-Ulm   Past weeks

Flag for Germany Past Weather in Neu-Ulm, Bavaria, Germany — Yesterday and Last 2 Weeks

Now
50 °F

Passing clouds.


Feels Like: 50 °F
Forecast: 45 / 59 °F
Wind: 2 mph from Southwest

Location: Laupheim Airport

Current Time: Oct 1, 2016 at 5:14:27 AM

Latest Report: Oct 1, 2016 at 4:20 AM


Visibility: N/A

Pressure: 29.92 "Hg

Humidity: 88%

Dew Point: 46 °F

Location of Neu-UlmLocation

Past Weather in Neu-Ulm — Graph

°F

Neu-Ulm Temperature Yesterday

Maximum temperature yesterday: 72 °F (at 2:20 PM)
Minimum temperature yesterday: 52 °F (at 4:20 AM)
Average temperature yesterday: 60 °F

High & Low Weather Summary for the Past Weeks

 TemperatureHumidityPressure
High73 °F (Sep 29, 3:20 PM)100% (Sep 17, 1:20 AM)30.45 "Hg (Sep 17, 1:20 AM)
Low39 °F (Sep 22, 5:20 AM)44% (Sep 29, 2:20 PM)29.89 "Hg (Sep 18, 5:20 AM)
Average56 °F81%30.14 "Hg
* Reported Sep 16 3:20 AM — Oct 1 3:20 AM, Neu-Ulm, Weather by CustomWeather, © 2016

Note: Actual official high and low records may vary slightly from our data, if they occured in-between our weather recording intervals... More about our weather records

Advertising

Neu-Ulm Weather History for the Previous 24 Hours

Scroll right to see more
 ConditionsComfort  
Time TempWeatherWind HumidityBarometerVisibility
3:20 AM
Sat, Oct 1
50 °FPartly cloudy.2 mph94%29.95 "HgN/A
2:20 AM52 °FPassing clouds.2 mph88%29.95 "HgN/A
1:20 AM52 °FPassing clouds.3 mph88%29.98 "HgN/A
12:20 AM54 °FPassing clouds.No wind88%29.98 "HgN/A
11:20 PM
Fri, Sep 30
54 °FPassing clouds.1 mph88%30.01 "HgN/A
10:20 PM55 °FPassing clouds.1 mph82%30.01 "HgN/A
9:20 PM57 °FPassing clouds.1 mph77%30.01 "HgN/A
8:20 PM59 °FPassing clouds.1 mph77%30.01 "HgN/A
7:20 PM64 °FPassing clouds.2 mph64%30.01 "HgN/A
6:20 PM68 °FPassing clouds.6 mph53%30.01 "HgN/A
5:20 PM72 °FPassing clouds.9 mph44%30.01 "HgN/A
4:20 PM72 °FPassing clouds.13 mph44%30.01 "HgN/A
3:20 PM72 °FPassing clouds.12 mph44%30.04 "HgN/A
2:20 PM72 °FPassing clouds.12 mph44%30.04 "HgN/A
1:20 PM70 °FPassing clouds.13 mph50%30.04 "HgN/A
11:20 AM66 °FPassing clouds.9 mph56%30.07 "HgN/A
10:20 AM63 °FPassing clouds.10 mph64%30.07 "HgN/A
9:20 AM59 °FPassing clouds.8 mph72%30.07 "HgN/A
8:20 AM55 °FPassing clouds.7 mph77%30.07 "HgN/A
7:20 AM52 °FPassing clouds.6 mph88%30.07 "HgN/A
6:20 AM54 °FCool.7 mph82%30.07 "HgN/A
5:20 AM52 °FCool.8 mph88%30.07 "HgN/A
Weather by CustomWeather, © 2016

See weather overviewHow to use our weather pages